GFSNIL_con_mlcape_000.txt.gz
CAPE
2780 2537 2292 2114 1243 772 396 164 266 1318 469 169 99 69 0 0 1 12 11 9 26 31
2875 2680 1929 1785 2080 1267 911 243 685 715 383 106 127 19 0 0 1 0 0 2 11 30
2558 2738 2527 2344 2167 1347 1298 954 574 435 146 84 90 21 20 0 0 0 0 0 0 2
2155 2305 2642 2539 2826 2470 1744 895 582 444 109 109 73 26 20 12 0 0 0 0 0 24
2143 2151 2415 2700 2545 1715 1247 418 358 268 174 64 45 43 70 18 0 0 0 0 5 92
2087 2226 2275 2355 1404 981 364 0 8 0 3 81 83 41 92 135 80 2 0 6 62 94
2227 2146 2248 1595 401 199 0 0 0 0 0 18 190 109 157 163 156 27 22 100 184 236
2458 2233 1556 871 317 67 0 0 0 0 0 0 186 114 173 158 96 95 160 219 314 366
2505 1825 875 604 395 100 0 0 0 0 0 0 33 8 5 74 137 191 331 404 495 431
2306 1507 752 568 499 300 3 0 0 0 0 0 17 12 14 37 80 160 291 595 349 235
1963 1334 968 648 659 336 46 0 22 28 2 0 0 110 37 28 167 300 661 520 259 136
1622 1190 928 824 661 606 175 61 246 299 210 128 137 124 43 54 156 343 440 180 79 16
1406 1252 969 1015 874 550 575 357 247 301 261 133 398 57 2 14 166 187 55 66 69 46
1387 1560 1364 1138 806 778 650 425 490 394 376 316 48 259 12 0 112 87 51 42 94 133

GFSNIL_con_mlcape_006.txt.gz
CAPE
1938 1940 1661 1913 1282 1549 676 592 1167 922 1445 1225 350 115 106 152 67 50 33 0 0 0
2571 2324 2018 1957 1843 1549 952 1084 1360 1155 1550 1153 548 250 219 53 60 78 80 45 19 0
3312 2598 2349 1783 1873 1362 1639 868 830 1309 942 1237 500 375 286 55 113 36 0 2 0 22
3402 3211 2497 3088 2639 1896 1696 1189 951 601 1138 1024 751 441 294 39 19 4 0 0 0 2
3397 3455 3218 2545 3057 2371 2564 1715 1043 1175 1192 1145 505 494 321 25 0 162 84 203 106 30
3302 3409 3306 3116 2661 2936 2523 2093 1919 1361 1289 845 345 485 275 193 55 70 14 11 41 57
3009 3125 3064 3197 3107 2812 2795 2417 2328 1768 1433 942 387 354 280 353 236 90 43 114 73 117
3203 3099 3093 3031 3135 3065 3173 3052 2804 1919 1390 914 325 393 376 324 264 177 207 271 98 91
3129 3375 3225 3097 3211 3222 3399 3083 2658 1500 962 571 246 212 166 456 383 288 263 300 156 199
3007 3488 3345 3261 3220 3420 3247 2700 1981 1159 573 369 265 100 59 281 280 59 201 327 109 75
3250 3637 3486 3353 3271 3383 2879 2344 1786 963 319 123 191 12 6 0 44 22 206 186 39 46
4019 3996 3741 3432 3211 2939 2490 2055 1696 971 321 206 230 56 0 0 0 0 19 5 11 179
4397 3972 3385 2954 2542 2171 1836 1703 1750 1326 562 351 408 135 14 0 0 0 1 5 91 165
4194 3582 2743 2278 1869 1532 1664 2069 1615 898 555 392 307 572 107 6 26 101 160 27 69 298

GFSNIL_con_mlcape_009.txt.gz
CAPE
2021 1414 919 1365 1597 1211 1144 1381 1199 1019 755 440 85 159 62 66 33 43 0 14 0 0
1731 1696 1446 1272 1474 1449 1177 1352 1155 933 838 639 352 60 86 57 1 146 20 0 0 0
2139 1648 1547 1505 1039 1884 1050 791 874 1058 1013 1005 529 114 109 49 15 7 30 0 0 0
2181 2072 1702 1734 1349 1582 1495 1066 957 879 1201 1027 563 256 178 62 14 52 1 0 0 0
2555 2556 2151 1606 1927 1818 1506 1317 1168 1036 782 997 751 389 228 126 68 15 48 0 2 0
2772 2842 2696 2078 2182 2409 1544 1532 1126 787 779 731 713 573 384 192 65 52 64 19 25 21
2866 2836 2996 2901 2164 2602 2661 2067 1396 1046 777 779 709 606 470 330 191 12 97 77 151 143
2889 2929 3039 3025 3040 2288 2577 2443 2151 1500 1192 951 760 585 439 351 271 5 108 132 163 160
2931 2974 3072 3105 3040 3035 2523 2637 2367 2045 1607 1324 880 566 396 377 314 143 251 140 193 127
2766 2950 2945 3037 2972 3035 3013 2878 2777 2314 1872 1501 1019 463 353 362 277 234 186 215 240 337
2899 2801 3055 3075 3045 3123 3103 3069 2817 2437 1859 1461 823 328 170 142 207 303 326 393 345 329
2618 2957 3206 3217 3175 3215 3136 2829 2652 2078 1576 868 450 244 70 15 69 185 249 156 164 169
2471 2853 3399 3337 3280 3072 2731 2250 1986 1757 1074 582 311 112 27 5 6 0 0 4 48 25
3038 3530 3402 3134 2851 2341 2239 2153 1952 1569 1012 477 230 112 44 0 9 8 0 0 1 22

GFSNIL_con_mlcape_012.txt.gz
CAPE
1247 1085 897 705 896 996 1147 1413 1223 1091 917 556 230 10 0 0 0 0 4 8 0 0
1326 1209 1079 1037 1161 924 1067 1147 1037 1012 1027 646 211 49 1 0 0 0 0 0 0 0
1313 1440 1319 1149 1177 1357 1221 1167 1040 1141 1047 660 209 158 40 6 5 0 26 0 0 0
1458 1341 1548 1468 1396 1280 1185 975 1079 1029 943 597 321 196 85 9 5 0 6 22 4 0
1785 1742 1418 1370 1380 1408 1331 1160 1148 1037 1022 785 513 303 199 77 5 0 0 1 7 0
2007 2013 1740 1472 1556 1438 1326 1049 1026 735 889 906 706 521 290 139 9 0 0 0 0 0
2183 2154 2102 1814 1567 1547 1499 1249 1232 1041 869 971 809 595 450 258 137 36 22 0 0 0
2287 2415 2410 2202 1846 1745 1845 1448 1441 1176 1120 886 874 728 533 401 229 95 81 59 23 49
2532 2584 2566 2597 2446 1988 1962 2078 1730 1380 1074 977 887 743 570 502 397 190 129 38 0 57
2619 2612 2643 2702 2715 2609 2229 2091 2071 1832 1584 1352 1118 838 533 487 496 344 246 96 0 14
2797 2637 2683 2737 2748 2733 2729 2395 2313 2036 1909 1755 1128 841 677 591 434 345 235 92 4 66
2768 2623 2705 2670 2782 2710 2787 2644 2660 2383 2048 1674 116 682 560 299 271 274 194 67 119 224
2666 2593 2583 2714 2757 2785 2810 2808 2574 2427 1920 320 295 471 374 226 80 128 105 137 237 244
2587 2605 2594 2770 2824 2898 2765 2740 2535 2082 1620 699 1125 766 448 17 3 3 3 14 24 5

GFSNIL_con_mlcape_015.txt.gz
CAPE
878 772 735 714 671 542 792 1002 1204 1159 1032 859 492 154 29 0 0 0 0 0 0 0
960 936 850 793 766 754 713 1096 1188 1093 1152 929 684 171 34 1 0 0 0 0 0 0
938 981 931 830 792 772 754 963 1000 1099 1159 857 584 254 73 1 0 0 0 0 0 0
1001 1036 991 903 901 783 870 939 953 983 1163 764 560 339 115 8 0 0 0 0 0 0
863 996 1111 965 953 903 1047 1030 1127 1050 1005 789 625 488 282 101 38 0 0 0 0 0
1071 1001 1072 1129 1146 1027 1089 1105 1017 985 1004 872 772 518 362 164 166 45 0 0 0 0
1269 1271 1119 1153 1256 1247 1176 1197 1117 1006 1055 1046 911 639 400 289 290 148 38 0 0 0
1429 1496 1502 1397 1302 1276 1244 1237 1132 1070 1032 1168 1038 800 602 423 429 287 155 19 9 0
1649 1706 1733 1722 1612 1463 1372 1410 1214 1141 1007 910 971 779 607 530 356 297 185 146 53 8
1817 1847 1933 1978 1903 1746 1580 1585 1292 1156 1054 978 1052 1026 733 504 526 399 239 327 173 17
2093 1947 2090 2228 2145 2037 1824 1816 1547 1307 1132 1112 1135 900 773 628 231 98 292 302 297 69
2281 2217 2310 2288 2368 2368 2195 1896 1883 1582 1452 1513 1412 998 987 676 87 247 327 322 162 124
2445 2406 2399 2416 2416 2496 2508 2203 1986 2001 1822 1858 1704 1080 999 379 371 493 447 217 82 79
2547 2596 2501 2470 2476 2568 2583 2470 2270 2250 2089 2041 1843 898 499 151 634 587 374 91 8 38

GFSNIL_con_mlcape_018.txt.gz
CAPE
434 369 416 434 411 434 204 457 809 844 910 879 717 438 197 93 0 0 0 0 0 0
489 468 473 501 478 539 461 525 613 767 887 941 779 555 329 116 5 0 0 0 0 0
606 595 586 598 565 571 621 712 622 823 1003 970 771 566 404 147 17 0 0 0 0 0
737 749 726 671 643 659 716 747 828 767 985 958 796 661 528 263 89 11 0 0 0 0
857 870 811 733 721 695 726 764 847 751 942 915 756 719 651 497 187 60 0 0 0 0
922 917 879 803 807 767 791 777 815 816 839 892 733 783 662 549 422 188 23 1 0 0
837 899 955 925 866 789 846 830 861 895 951 1013 986 816 717 568 567 396 190 83 0 0
862 857 901 1030 997 964 918 926 938 896 1043 1080 1005 906 725 633 674 554 411 187 65 0
1038 1085 1024 984 1053 1081 1048 1090 1015 929 966 1104 1076 944 816 823 771 652 487 341 124 70
1215 1285 1312 1239 1135 1097 1119 1123 1116 1078 1004 1033 1186 986 940 920 976 828 535 419 381 362
1424 1437 1479 1517 1371 1283 1236 1173 1206 1196 1118 1041 1082 1004 974 827 1033 782 585 522 564 566
1530 1592 1629 1687 1638 1595 1498 1367 1383 1302 1205 1211 1171 992 835 763 885 850 722 600 405 366
1650 1692 1722 1877 1890 1849 1755 1619 1579 1400 1285 1313 1416 906 715 780 847 791 748 248 265 234
1849 1944 1945 2005 2148 2164 2104 1979 1797 1635 1480 1542 1479 1034 746 592 803 974 787 297 636 401

GFSNIL_con_mlcape_021.txt.gz
CAPE
1014 1058 1077 1035 901 953 975 1040 1250 1393 1553 1435 1424 1325 1065 777 570 270 131 8 0 12
999 979 987 1057 1087 1003 1098 1121 1287 1249 1440 1502 1470 1390 1176 914 674 267 121 12 5 4
935 998 1054 1155 1070 1053 1149 1053 1058 1108 1424 1541 1454 1476 1282 1065 777 363 140 39 40 0
1013 1020 1010 1105 1158 1116 1191 1174 1250 1273 1244 1353 1365 1464 1345 1223 912 494 280 135 41 16
1140 1176 1131 1125 1190 1241 1147 1218 1348 1426 1408 1407 1587 1526 1374 1258 1066 768 457 333 86 0
1259 1298 1280 1246 1308 1352 1305 1297 1342 1448 1437 1489 1527 1485 1344 1380 1318 932 742 499 164 56
1267 1292 1380 1423 1410 1411 1401 1314 1328 1430 1497 1544 1528 1470 1347 1272 1393 1205 938 733 402 147
1345 1457 1525 1514 1466 1475 1488 1384 1356 1371 1472 1514 1496 1437 1408 1242 1270 1360 1085 887 558 240
1363 1533 1568 1600 1571 1542 1490 1484 1466 1412 1442 1422 1418 1278 953 1254 1475 1390 1242 1161 810 460
1301 1438 1554 1614 1648 1543 1551 1510 1493 1454 1494 1471 1484 1010 727 862 1518 1455 1332 1309 1150 748
1325 1393 1537 1536 1599 1690 1713 1619 1610 1513 1509 1536 1606 1062 683 679 1174 1523 1501 1360 1269 1035
1350 1400 1571 1641 1614 1705 1776 1856 1781 1800 1655 1569 1631 1173 753 655 1115 1475 1533 1486 1259 1115
1652 1685 1686 1823 1966 1955 1868 1829 1860 1892 1815 1669 1651 1330 859 778 1247 1390 1486 1293 1100 701
1753 1823 1902 2042 2087 2206 2203 2116 2034 1967 1922 1802 1604 1905 943 770 1319 1488 1153 1071 939 976

GFSNIL_con_mlcape_024.txt.gz
CAPE
2049 1657 1660 1690 1478 1457 1080 1016 1080 1553 1840 1912 1902 2114 2140 2083 1702 1329 1033 404 10 0
2102 1936 1457 1652 1916 1580 1608 1261 1361 1498 1890 1862 1969 2045 2142 1957 1849 1337 1208 614 187 27
1901 2136 2014 2099 1935 1890 1689 1678 1365 1774 1772 1774 1928 2078 2186 1824 1851 1686 1141 564 183 125
1833 1851 2000 1989 2211 2274 1944 1971 1960 1890 1844 1692 1898 2105 2275 2099 1630 1849 1469 716 378 290
2065 1988 1828 2052 2117 2299 2100 2157 2155 2068 2025 1809 1747 2023 2211 2243 1598 1866 1648 1287 747 510
1982 2030 2010 2233 2140 2294 2373 2341 1963 2227 2266 2092 1870 1896 2084 2284 2150 1877 1893 1606 1261 876
2208 2137 2199 2312 2302 2338 2471 2445 2335 2370 2495 2319 2131 1953 1938 2212 2202 2058 1989 1974 1653 1201
2277 2487 2428 2373 2483 2450 2545 2507 2520 2456 2532 2550 2187 1882 2084 2153 2127 2158 2142 2099 2018 1628
2310 2524 2518 2564 2574 2562 2540 2625 2595 2429 2554 2501 2249 1713 1462 2039 2154 2263 2290 2213 2158 1870
2293 2441 2588 2595 2659 2584 2585 2645 2633 2639 2609 2643 2644 1673 1284 1338 1922 2237 2189 2275 2315 2136
2219 2417 2532 2641 2691 2733 2729 2604 2712 2764 2708 2686 2779 2143 1299 1126 1595 2167 2217 2129 2349 2373
2119 2175 2406 2696 2763 2830 2735 2770 2803 2862 2869 2772 2712 2229 1600 1156 1481 1642 2252 2356 2475 2457
2296 2406 2380 2589 2826 2898 2879 2811 2618 2737 2862 2897 2768 2497 1689 1381 1603 1565 1736 2275 2512 2040
2468 2562 2580 2727 2935 2864 2804 2548 2814 2843 2921 3006 2826 2925 1724 1380 1753 1771 1742 1538 1991 2351

GFSNIL_con_mlcape_027.txt.gz
CAPE
2250 1765 1355 1516 1131 1048 798 735 1109 2183 2009 2078 2100 2094 2207 2094 1996 1672 1480 970 78 8
2474 2105 1653 1570 1804 1885 1578 1047 1481 1962 2220 2152 2174 2285 2317 1817 2239 1874 1740 1306 796 67
2871 2819 2305 2300 2387 1865 1959 1944 1894 1623 1873 2147 2234 2381 2434 1895 2092 2202 1787 1252 952 427
2578 2639 2781 2488 2694 2502 2586 2731 1972 2438 2146 2262 2351 2496 2583 2186 1863 2299 2135 1640 1145 788
2601 2573 2633 2719 2507 2869 2738 2759 3068 2625 2685 2607 2428 2509 2616 2575 1635 2196 2249 1977 1425 875
2780 2718 2499 2749 2827 2839 2966 2962 2843 2949 3017 2901 2580 2459 2759 2795 2596 2289 2307 2194 2041 1414
2904 2771 2866 2782 3027 2955 3065 3094 3028 2924 3075 3106 3015 2626 2649 2727 2772 2603 2401 2451 2385 2083
2819 3087 3141 3078 3037 3178 3151 3197 3188 3127 3098 3380 3248 2640 2620 2471 2719 2891 2717 2544 2693 2516
2725 3168 3312 3318 3320 3439 3264 3371 3377 3251 3110 3125 3259 2527 1992 2541 2599 2831 3018 2861 2855 2677
2746 3034 3382 3570 3542 3497 3533 3521 3478 3394 3358 3234 3325 2604 1836 1823 2565 2815 3004 3023 2882 2843
2570 3109 3404 3575 3603 3684 3667 3551 3581 3593 3564 3429 3416 2990 2126 1676 2012 2578 2896 2901 2984 2976
2849 3051 3440 3518 3595 3712 3696 3700 3588 3672 3655 3586 3504 3085 2599 1867 2003 2297 2448 2874 3005 2902
3052 3179 3435 3571 3610 3720 3764 3734 3654 3626 3674 3673 3698 3480 2759 2303 2392 2250 2455 2601 2964 2544
3254 3507 3502 3490 3674 3868 3877 3573 3687 3584 3651 3734 3735 3774 3032 2351 2775 2420 2333 2506 2648 2955

GFSNIL_con_mlcape_030.txt.gz
CAPE
2477 1632 752 1941 1114 1049 1235 1015 1912 1544 2102 2091 2047 1810 2374 2064 1918 2124 1317 1522 76 63
1657 2425 1085 1201 1798 1609 1139 1400 1358 1807 1773 1879 2012 2238 1847 2248 2357 2068 1927 1544 1276 48
2052 2182 2170 1075 1702 1427 1812 1118 1776 2203 2093 2261 2338 2642 2367 2483 2021 2125 2269 1774 1461 498
2772 2136 1992 2201 1746 2322 1537 2562 1436 2820 2549 2390 2389 2474 2658 2368 2171 2239 2066 2096 1592 1061
2820 2992 2512 1769 2118 2351 2908 1878 2855 2267 2388 2625 2429 2500 2529 2623 1937 2326 2335 2087 1870 1597
2958 2893 2949 2899 2013 2529 2541 3141 2403 3083 2710 2487 2588 2421 2737 2697 2615 1922 2693 2649 2230 1680
3146 3000 2976 2919 2976 2355 2854 2691 2870 2816 3053 3096 2830 2780 2660 2751 2778 2645 2203 2730 2725 2276
3057 3275 3042 3036 3023 3196 2810 2866 2913 2923 3005 3022 3211 3035 2803 2691 2802 2904 2725 2517 2790 2655
2904 3067 3445 3260 3216 3230 3294 3216 3235 3283 3144 3101 3223 3153 2793 2745 2798 2985 2853 2807 2657 2858
2825 2987 3228 3478 3443 3385 3419 3488 3413 3447 3465 3225 3261 3061 2772 2625 2787 2846 2893 2898 2926 2851
3033 3056 3276 3469 3626 3673 3671 3688 3624 3638 3672 3564 3513 3156 2754 2553 2628 2774 2805 2887 2959 2939
3248 3263 3419 3586 3742 3854 3912 3880 3884 3815 3842 3837 3713 3366 2921 2501 2583 2503 2615 2949 3018 3077
2649 3175 3349 3711 3928 4018 4094 4076 4054 4024 3943 3919 3929 3744 3152 2739 2912 2590 2470 2640 2953 2938
3298 3116 3430 3625 4062 4139 4202 4191 4098 4063 4096 4010 3940 3975 3498 2879 3245 3139 2793 2515 2573 2771

GFSNIL_con_mlcape_033.txt.gz
CAPE
1845 1241 760 886 539 546 865 1227 1159 1278 1828 1623 1420 1231 1389 1229 1323 1554 609 847 185 0
1114 2007 974 469 1083 872 1108 931 1349 1372 1629 1771 1535 1203 1572 1632 1377 1737 1497 606 586 58
931 1316 1914 879 485 1421 848 1046 1106 1403 1560 1646 1706 1517 1299 1996 2139 1608 1834 1517 880 121
1317 1096 1730 1762 777 640 1594 1455 865 1572 1554 1595 1624 1850 1599 1334 1788 2062 1825 1855 1539 1112
1878 1628 1121 1917 1782 433 1219 1353 1967 1649 1871 1929 1667 1615 1931 1723 1809 1824 1757 1981 1742 1501
2044 2187 1768 1397 1529 2006 768 1416 1250 2114 2331 2104 2058 1976 1986 1969 1962 1969 2048 1934 1947 1731
2350 2383 2438 2137 1676 1340 2078 1659 2046 1544 1989 2528 2294 2080 2120 2039 1901 1960 1750 2112 2376 2017
2629 2595 2597 2543 2631 2272 1433 1920 2131 2313 2263 2289 2534 2429 2255 2192 2129 2016 2025 1755 1984 2434
2765 2745 2686 2710 2576 2777 2676 1964 2177 2469 2266 2511 2671 2736 2394 2414 2398 2330 2187 2078 1945 2178
2786 2786 2825 2779 2798 2686 2693 2838 2394 2151 2653 2374 2619 2696 2642 2583 2645 2532 2516 2402 2364 2232
2726 2866 2901 3021 2890 2969 2881 2915 3004 2905 2586 2880 2834 2671 2566 2518 2852 2759 2600 2721 2672 2547
2446 2715 2924 2980 3180 3174 3224 3168 3167 3258 3228 3119 3151 3016 2769 2489 2732 2829 2811 2748 2763 2865
2631 2775 2819 3007 3135 3288 3374 3401 3457 3388 3525 3421 3405 3331 2931 2762 2975 2866 2814 2809 2716 2639
2825 3004 3230 3197 3258 3448 3538 3624 3645 3753 3699 3733 3678 3607 3252 2970 3264 3201 3088 2916 2749 2614

GFSNIL_con_mlcape_036.txt.gz
CAPE
688 597 478 557 524 363 365 463 529 914 1198 1473 1338 1094 860 878 867 1114 540 702 209 12
913 852 708 655 534 428 461 674 636 667 946 1103 1476 1252 1086 918 954 1093 1214 563 690 157
1075 1252 942 755 705 702 603 672 911 950 1078 1138 1365 1444 1259 1169 1093 1249 1295 1272 519 446
810 850 1593 1068 681 516 789 953 885 1203 1140 1318 1320 1441 1351 1235 1344 1355 1390 1540 1351 732
1300 918 846 1443 1283 785 532 694 1106 1147 1297 1343 1495 1556 1485 1290 1308 1593 1757 1679 1577 1414
1500 1301 975 907 1415 1447 982 754 858 1556 1370 1230 1452 1584 1674 1523 1376 1291 1444 1674 1705 1620
1512 1546 1351 1121 947 1456 1610 981 775 1099 1652 1799 1712 1586 1641 1679 1581 1496 1534 1526 1696 1660
1520 1647 1777 1628 1343 1105 1244 1520 1264 910 1154 1791 1906 2117 1963 1804 1650 1675 1807 1694 1749 1848
1890 1743 1776 1889 1911 1692 1449 1219 1422 1471 1569 1353 1705 2028 1989 2180 2062 1849 1813 1795 1731 1670
2039 2155 2068 2049 2144 2156 2006 1871 1368 1322 1642 1682 1947 2020 2059 2090 2265 2203 2136 2064 1989 1958
2356 2304 2402 2434 2374 2365 2373 2445 2249 1853 1693 1915 1909 1869 1937 2088 2340 2360 2305 2332 2308 2251
2310 2494 2591 2586 2625 2618 2644 2556 2546 2596 2394 2063 2081 2140 1988 1984 2255 2387 2589 2628 2510 2528
2177 2425 2552 2618 2674 2769 2742 2728 2691 2658 2746 2764 2649 2310 2249 2200 2480 2458 2495 2600 2737 2531
1840 2068 2425 2607 2783 2846 2958 2880 2912 2927 2886 2978 2988 3010 2571 2393 2892 2965 2932 2842 2847 2792

GFSNIL_con_mlcape_039.txt.gz
CAPE
23 1 32 21 56 265 380 481 446 713 894 848 873 1067 878 826 731 682 535 630 123 37
140 138 140 139 109 80 375 442 330 532 698 821 908 1221 1147 868 736 831 841 504 566 193
302 310 336 284 270 129 385 508 426 413 627 816 889 1107 1246 1108 835 876 941 936 736 598
475 488 512 504 406 435 319 486 604 535 599 745 752 869 1057 1311 1151 892 789 1076 1086 994
657 737 804 665 541 489 595 602 609 734 775 836 1010 994 1021 1182 1474 1231 949 990 1228 1210
664 686 820 1094 1041 614 544 668 698 771 1044 1056 1179 1257 1215 1231 1290 1442 1337 1113 1117 1262
968 895 726 734 1046 1237 882 703 799 797 721 1018 1225 1275 1389 1426 1406 1381 1433 1454 1400 1382
1194 1215 1127 956 876 1097 1183 930 785 921 1084 987 1152 1471 1461 1436 1429 1441 1470 1426 1417 1451
1204 1303 1314 1239 1146 999 1105 1264 1072 753 894 1128 1226 1192 1345 1572 1705 1697 1639 1574 1515 1466
1343 1292 1358 1418 1422 1293 1068 1107 1166 1202 953 833 1018 1152 1250 1403 1736 1721 1784 1852 1806 1772
1692 1594 1514 1602 1683 1686 1589 1353 1230 1112 1232 1301 1319 1245 1033 1232 1650 1811 1876 1892 1856 1860
1854 1842 1926 1864 1807 1874 1946 1961 1847 1735 1489 1314 1405 1441 1411 1371 1643 1859 1985 2114 2117 2179
1956 2021 2057 2127 2139 2097 2198 2211 2314 2394 2434 2141 1911 1701 1606 1418 1771 1853 1938 2166 2302 2271
1912 2023 2229 2248 2337 2410 2451 2519 2563 2559 2506 2561 2472 2376 1843 1726 2143 2215 2296 2347 2416 2465

GFSNIL_con_mlcape_042.txt.gz
CAPE
0 0 0 0 0 0 0 53 337 376 459 592 752 727 744 677 579 713 540 513 331 114
0 0 0 0 0 0 0 68 295 447 457 532 652 762 828 1043 868 788 795 606 456 423
0 0 0 0 0 8 2 94 310 466 536 501 637 730 820 1008 1108 947 811 869 802 641
66 25 32 27 28 22 50 66 163 419 452 461 534 671 847 983 1101 1134 1041 882 1008 943
177 163 120 146 124 106 109 162 165 452 500 488 522 647 795 795 966 1093 1225 1128 929 819
246 279 245 285 267 219 268 231 280 378 518 534 623 715 818 945 954 1088 1212 1358 1233 1096
347 381 437 444 444 320 365 449 433 465 543 624 665 976 1031 1110 1204 1219 1295 1375 1443 1430
479 524 550 664 781 666 475 509 527 591 609 705 756 742 1094 1359 1267 1254 1312 1365 1439 1549
604 586 580 537 592 881 881 805 746 718 757 674 749 786 644 864 1462 1544 1453 1311 1277 1346
835 866 816 752 672 663 812 1002 980 871 864 868 873 745 745 809 1018 1253 1443 1484 1546 1597
1094 1085 1099 1093 1034 955 887 909 1077 1127 1072 926 887 742 655 752 1096 1186 1200 1250 1390 1524
1262 1210 1217 1258 1280 1273 1266 1141 1043 1083 1150 1173 1162 858 717 648 994 1243 1296 1526 1605 1601
1488 1430 1365 1347 1349 1472 1561 1551 1526 1391 1368 1265 1293 1181 1025 877 1216 1236 1312 1587 1796 1747
1643 1666 1677 1664 1655 1678 1773 1854 1948 1986 1999 1999 1786 1757 1351 1141 1538 1768 1841 1835 1928 2039

GFSNIL_con_mlcape_045.txt.gz
CAPE
186 169 168 263 230 240 161 257 732 740 972 1144 1391 1475 1414 1391 1462 1459 1365 1026 879 788
239 207 197 284 319 285 245 224 651 662 923 1050 1175 1328 1466 1449 1657 1490 1550 1673 1569 1289
235 269 289 353 263 275 252 208 265 733 937 1175 1192 1336 1469 1486 1698 1924 1831 1572 1638 1429
250 249 304 298 334 401 290 334 380 656 834 1115 1234 1295 1441 1440 1591 1834 1957 1891 1659 1561
206 248 246 284 377 434 339 430 534 727 704 1009 1184 1295 1328 1285 1459 1713 1724 1890 1960 1804
173 248 301 354 496 530 406 470 584 781 671 952 1083 1231 1295 1275 1453 1731 1724 1798 2007 1989
364 359 441 539 653 652 556 582 691 817 896 959 1078 1253 1310 1423 1477 1650 1867 1902 1985 2073
559 625 685 797 826 817 740 769 806 890 932 1084 1114 1134 1231 1414 1659 1691 1834 2006 2118 2166
716 756 794 921 958 943 825 851 1053 1034 1106 1131 1159 834 804 1037 1452 1894 1967 1736 1951 2043
918 912 956 1044 1135 1151 1010 1067 1117 1129 1167 1269 1374 926 557 569 1081 1339 1572 1905 2132 2228
1039 1036 1115 1184 1218 1295 1443 1457 1342 1366 1390 1389 1524 1176 775 595 870 1309 1629 1720 1760 1888
1192 1207 1312 1318 1298 1280 1294 1377 1489 1638 1702 1519 1511 1113 800 721 1105 1273 1477 1805 1871 1914
1398 1416 1505 1548 1563 1589 1524 1436 1482 1530 1765 1855 1810 1607 807 622 1210 1369 1469 1807 2027 1763
1629 1684 1731 1772 1895 1969 1902 1904 1884 1822 1898 1892 1777 1794 1208 775 1333 1566 1757 1874 1959 2161

GFSNIL_con_mlcape_048.txt.gz
CAPE
596 289 303 632 469 378 130 133 335 1487 1526 1721 1808 1816 1900 1686 1570 1541 1536 1538 1190 325
886 646 413 619 708 543 582 271 429 648 1268 1216 1500 1756 1835 1441 1861 1759 1795 1833 1820 1475
668 850 755 755 838 888 616 840 429 778 792 937 1399 1612 1868 1485 1701 1953 1910 1426 1532 1865
609 656 917 826 892 1087 1070 986 1194 782 713 1074 1546 1686 1878 1714 1507 2070 2079 1946 1747 1873
749 732 675 956 953 1154 1259 1269 1318 1172 1050 994 1182 1629 1956 1889 1397 1838 1963 2001 1990 1969
655 714 762 1010 1148 1219 1323 1453 1316 1287 1352 1310 1112 1569 1856 1937 1865 1801 1932 2032 2028 2122
768 810 846 1073 1258 1236 1409 1550 1529 1313 1426 1477 1205 1147 1580 1780 1933 1850 1889 2139 2175 2279
1116 1090 1105 1279 1369 1391 1522 1613 1698 1512 1483 1580 1341 1023 1208 1394 1503 1802 1980 2090 2368 2410
1511 1460 1439 1561 1672 1644 1643 1741 1822 1601 1587 1654 1449 799 699 963 1102 1383 1872 2078 2251 2418
1688 1715 1744 1732 1882 1810 1766 1870 1937 1816 1737 1855 1937 1226 683 692 947 993 1467 1919 1995 1924
1900 1861 1969 2005 2037 2134 1986 2004 2001 1965 2042 2119 2139 1744 1245 752 1175 1329 1454 1591 1718 1956
1974 1933 1977 2013 2103 2101 2125 2125 2098 2100 2232 2259 2287 1722 1393 1150 1408 1467 1759 1838 1922 2134
2129 2102 2092 2171 2168 2257 2241 2271 2243 2326 2426 2416 2517 2295 1472 1268 1610 1498 1525 1887 2314 1916
2189 2248 2291 2445 2465 2366 2219 2155 2328 2308 2412 2508 2479 2585 1858 1283 1740 1516 1424 1437 1338 1567

GFSNIL_con_mlcape_051.txt.gz
CAPE
628 54 1 156 230 146 58 91 1736 1816 1537 1823 1894 1595 1718 1581 1505 1395 1340 1380 1114 671
740 138 0 0 610 965 465 180 401 1287 1522 1402 1383 1717 1738 1256 1619 1859 1903 1617 1613 1360
1203 1262 539 731 1304 858 829 650 648 561 796 1304 1300 1447 1906 1318 1735 1722 1625 1217 1906 1809
877 1024 1110 1390 1426 1406 1258 1434 1273 1164 1075 1123 1148 1504 2084 1732 1628 1636 1722 1899 1673 1784
974 879 929 1033 1455 1651 1770 1663 1644 1755 1420 1189 1098 1765 1990 1785 1127 1825 1818 1825 1846 1800
969 1114 890 1329 1390 1668 1852 2009 1635 1910 1973 1574 1295 1700 2120 2140 1863 1639 1655 1726 1976 2048
1282 1314 1102 1167 1590 1691 1960 2159 2125 2217 2152 1905 1689 1505 1548 2000 2098 2054 1810 1957 2041 2151
1461 1370 1385 1234 1679 1852 2105 2222 2396 2447 2296 2139 1809 1445 1456 1874 2105 2203 2066 2038 2155 2185
1396 1395 1371 1381 1775 2056 2212 2331 2469 2449 2491 2200 1689 1115 864 1284 1634 1885 2133 2282 2403 2400
1668 1706 1708 1742 1967 2146 2230 2484 2653 2635 2633 2501 2362 1304 777 645 1078 1538 1791 2002 2402 2373
1984 2066 2105 2155 2189 2289 2405 2344 2551 2763 2822 2718 2722 1966 1212 713 1035 1189 1426 1982 2231 2440
2141 2335 2508 2498 2519 2645 2660 2616 2675 2931 2945 2853 2833 2046 1553 1230 1306 1355 1712 1974 1958 2085
2312 2544 2689 2736 2807 3001 2943 2903 2567 2827 3079 3143 3153 2785 1775 1462 1817 1644 1713 2100 2381 2170
2605 2809 2893 2991 3072 3131 3103 2535 2963 2768 2957 3025 2908 3288 2274 1484 2149 1803 1596 1550 1208 1517

GFSNIL_con_mlcape_054.txt.gz
CAPE
833 39 227 563 95 375 518 875 1218 1805 1604 1632 1591 1705 1482 1432 1457 1494 1103 1380 997 919
1032 751 105 137 262 708 277 615 1606 1510 2231 1809 1951 1338 1693 1469 1050 1787 1624 1500 1506 1084
329 787 415 1 60 220 1008 492 1865 1883 1691 1811 1855 1969 1779 1665 1239 1479 1874 1555 1919 1632
732 502 211 573 3 1068 524 1577 837 1663 1835 1683 1545 1872 1884 1445 1775 1713 1354 1877 2038 1991
1000 663 510 6 1239 763 1795 1176 2288 1226 1781 1329 1753 1752 1733 2037 1372 1808 1705 1643 1518 2144
1070 1147 1023 648 448 1532 1276 1835 1445 2292 1569 1970 1510 1610 1901 2210 1765 1726 2287 2185 2031 1870
1282 1150 924 1214 723 1473 1879 1646 1915 1798 2264 2138 1860 1573 2010 2458 2362 2068 1889 2271 1905 2206
1694 1423 1217 1106 1335 935 1425 1921 2147 2121 2335 2393 2261 1824 1724 1914 2415 2384 2226 2128 2228 2282
1586 1584 1468 1206 1388 1573 1441 1836 2155 2361 2343 2596 2391 1925 1350 1665 1768 2438 2367 2247 2216 2536
1624 1792 1559 1719 1293 1708 1703 1844 2160 2399 2594 2619 2656 1823 1176 1135 1549 1825 2252 2555 2529 2598
1557 1713 1889 1698 1816 1515 1887 1911 2125 2438 2628 2752 2783 2339 1262 896 1085 1476 1903 2064 2104 2217
1472 1742 1809 1818 1766 1771 2000 2214 2234 2513 2678 2626 2890 2535 1906 1004 933 1094 1159 1294 1402 2202
1593 1961 1944 1934 1933 2021 2175 2344 2444 2495 2724 2891 2859 2693 2181 1542 1491 1356 1352 1588 1741 1743
2215 1977 2399 2419 2418 2434 2552 2644 2662 2567 2743 3037 3030 3077 2227 1642 1963 1771 1872 1859 1904 2191

GFSNIL_con_mlcape_057.txt.gz
CAPE
147 0 124 640 1022 917 1044 932 1238 1257 1234 945 1243 1164 1105 1037 849 1090 769 795 1075 462
486 1 16 111 503 604 939 922 708 1387 1138 1131 1337 1157 1302 933 905 1477 1347 748 562 563
202 376 0 6 108 376 58 252 913 1555 1346 1339 1207 1192 1562 1161 1291 1017 1511 1297 1587 1076
30 474 279 33 0 166 238 1018 962 1517 1500 1617 1550 1455 1406 1378 1378 1219 1137 1595 1379 1552
99 87 364 179 2 0 63 287 1571 1449 1219 1371 1487 1535 1609 1544 1400 1375 1505 1540 1354 1629
631 36 195 52 124 1 0 113 487 1514 1575 1461 1310 1161 1353 1445 1258 1351 1371 1717 1574 1415
721 603 52 47 0 358 105 526 565 1104 1345 1210 1110 1275 1313 1449 1416 1422 1257 1756 1962 1845
900 670 636 166 89 0 806 278 1271 1228 1565 1525 1400 1279 1210 1427 1535 1678 1565 1338 1367 2089
1108 895 748 770 766 259 0 1402 782 902 1398 1701 1846 1603 1342 1244 1611 2106 1999 1815 1778 1577
1224 1184 916 837 720 946 467 278 1587 1452 1381 1398 1656 1779 1630 1374 1229 1326 1760 2025 2018 1926
1330 1298 1284 1086 891 846 1004 727 607 1229 1667 1695 1695 1871 1688 1522 1266 1342 1292 1664 2158 2139
1265 1314 1430 1230 1171 921 1059 1222 1043 1291 1657 1823 1951 1806 1822 1493 993 1068 1285 1373 1477 1669
1202 1381 1387 1358 1227 1370 989 1069 1482 1316 1609 1924 1949 1987 1793 1581 1517 915 917 1088 1239 1495
1262 1360 1414 1498 1439 1340 1452 1263 1290 1576 1611 1958 2199 2254 1874 1643 1910 1392 999 969 985 1149

GFSNIL_con_mlcape_060.txt.gz
CAPE
45 72 139 379 536 915 931 850 1140 1102 978 917 657 793 540 700 745 671 426 556 726 524
145 64 40 405 747 779 864 830 1170 1171 1123 965 974 754 669 718 599 648 662 353 250 429
93 190 5 2 437 1036 898 859 853 1120 1115 1013 816 919 856 649 711 700 1127 933 709 557
6 161 178 0 3 182 558 815 953 1027 920 1015 884 987 1035 842 776 920 860 1048 1095 928
0 4 197 85 0 0 60 491 646 710 1011 1097 1000 834 998 981 1110 971 1102 930 1133 1302
99 0 17 213 138 3 0 90 1035 1310 1154 1227 1098 1109 1089 1068 1056 1130 1147 1236 1260 1201
413 144 0 17 177 119 16 0 77 863 1390 1220 1186 1292 1205 1189 1119 1042 1048 1150 1141 1549
465 567 240 0 4 2 52 20 0 133 835 1340 1172 1041 918 943 911 856 818 989 1196 1287
476 612 608 345 31 0 0 63 50 72 198 820 1325 1153 1058 1017 943 937 899 716 1209 1344
965 749 658 627 390 124 20 0 109 218 497 1022 1261 1256 1028 955 1041 1017 1023 973 1323 1453
1205 1096 875 692 688 527 363 69 0 289 493 609 1252 1386 1220 1084 1109 1055 1106 1224 1375 1507
1461 1294 1104 944 816 750 739 640 170 184 846 793 901 841 919 961 1088 1144 1155 1111 1164 1306
524 1364 1227 1152 989 894 751 791 814 482 376 916 1289 1371 1098 897 1134 985 1063 1172 1155 1165
101 558 1294 1247 1187 1090 974 841 928 932 806 832 1027 1149 1012 902 1332 1243 912 876 881 945

GFSNIL_con_mlcape_063.txt.gz
CAPE
0 68 222 245 314 298 571 812 1001 914 887 873 493 707 596 728 745 700 375 607 797 440
0 0 95 145 221 389 457 785 912 917 919 1035 856 586 831 538 661 833 638 387 366 406
1 0 0 23 126 409 550 802 917 940 855 1030 1085 930 763 738 701 638 572 742 533 361
3 37 4 0 13 66 681 857 870 951 1017 934 1125 1060 948 816 757 775 585 871 1036 867
0 0 10 0 0 4 1 246 666 879 1014 1006 1060 1065 908 904 996 884 846 954 969 1029
0 0 0 0 0 0 0 0 90 376 869 1054 885 999 991 930 989 1063 1063 1044 1254 1103
35 0 0 0 0 0 0 0 0 138 705 927 778 990 1097 999 943 1013 1172 1164 1154 1254
233 131 0 0 0 0 0 0 0 1 257 856 1292 1213 1102 1064 1114 1064 1067 1222 1219 1174
271 265 135 9 0 0 0 0 0 0 0 162 603 1172 1128 1045 1161 1166 1065 983 968 1050
264 285 367 239 35 0 0 0 0 0 0 0 161 344 752 964 1081 938 908 927 904 927
443 339 380 448 298 115 15 2 0 0 0 0 87 32 24 274 921 1079 1007 1040 1002 1013
713 705 525 532 525 434 216 61 35 0 0 0 3 100 60 99 754 958 981 982 1033 1164
725 948 929 796 664 564 494 391 237 74 0 0 117 58 116 183 573 870 974 1091 1017 811
30 363 1112 1075 852 702 667 625 597 581 256 32 227 436 171 150 498 405 588 576 596 697

GFSNIL_con_mlcape_066.txt.gz
CAPE
26 17 64 83 77 86 247 457 640 778 768 599 601 495 356 446 640 487 360 575 753 473
0 0 33 117 139 206 305 343 592 696 629 675 745 525 584 527 464 533 550 396 421 492
0 0 0 30 139 207 258 367 446 615 748 645 865 793 583 541 642 526 591 747 574 364
0 0 0 0 51 138 175 327 473 703 872 757 711 753 934 641 627 672 694 565 769 801
15 0 0 0 0 0 76 197 632 777 867 838 840 783 825 902 766 614 716 794 773 888
0 0 0 12 0 0 0 3 43 311 697 852 932 982 987 1051 934 809 803 871 904 985
3 0 0 0 0 0 0 0 0 8 89 293 502 762 913 823 965 966 825 872 1050 1116
2 0 0 0 0 0 0 0 0 0 1 107 287 550 779 822 858 951 827 840 855 974
85 20 0 0 0 0 0 0 0 0 0 0 130 263 481 909 1113 1029 932 859 949 1025
150 152 102 29 0 0 0 0 0 0 0 0 0 5 31 177 734 1056 941 918 979 927
96 138 186 171 43 3 0 0 0 0 0 0 0 0 0 0 159 419 718 887 947 929
201 173 188 232 299 166 10 0 0 0 0 0 0 0 0 0 0 23 92 295 478 729
222 521 405 305 340 368 269 126 13 24 0 0 25 0 0 0 1 0 0 65 205 279
0 26 698 686 492 460 460 414 280 169 128 8 5 21 0 4 110 122 7 0 34 271

GFSNIL_con_mlcape_069.txt.gz
CAPE
530 561 530 612 594 709 815 1040 1304 1257 1018 1165 1193 1106 1038 1161 1103 1116 1115 930 1432 1245
532 496 491 566 619 586 715 905 1156 1303 1264 1271 1282 1325 1067 1130 1050 1287 1386 1230 1237 1329
245 509 511 544 535 626 670 886 1058 1155 1309 1327 1361 1291 1186 1199 1325 1113 1209 1273 1349 1131
145 213 386 357 460 728 734 863 1030 1118 1218 1424 1386 1534 1433 1374 1192 1309 1368 1245 1258 1445
181 174 233 185 223 486 766 824 884 1106 1285 1528 1555 1567 1514 1093 1383 1206 1200 1306 1370 1203
313 306 245 227 176 157 398 808 879 1063 1303 1451 1551 1544 1463 1494 1197 1580 1380 1405 1461 1485
130 215 329 507 366 206 135 197 586 784 900 1326 1594 1642 1695 1683 1727 1840 1733 1615 1575 1579
347 195 110 203 470 430 320 195 137 386 605 756 960 1178 1363 1533 1544 1455 1585 1782 1676 1483
496 500 415 252 161 379 402 329 269 204 178 447 566 360 466 918 1352 1485 1409 1539 1660 1621
495 578 481 423 361 322 313 368 301 204 207 95 251 208 117 126 782 1372 1563 1568 1628 1625
422 524 655 603 497 403 356 311 366 341 284 208 216 23 0 0 261 920 1183 1388 1459 1502
442 493 543 692 744 692 530 440 395 414 425 354 231 19 0 0 88 335 876 1053 1173 1349
371 243 903 715 713 782 864 604 504 395 414 417 416 219 0 0 43 78 138 537 897 624
0 155 139 362 1131 904 914 896 830 640 535 476 425 442 81 0 98 279 362 253 140 151

GFSNIL_con_mlcape_072.txt.gz
CAPE
1167 975 900 793 418 752 776 945 1118 1270 1083 1299 1252 1128 1127 1021 761 897 1238 1449 1568 860
1293 1090 594 664 877 725 717 871 1572 1014 956 990 1365 1497 1497 1201 1226 1231 1397 1141 1219 1258
1189 1245 1067 982 1082 790 625 1036 1097 1629 1451 1116 1285 1605 1834 983 1331 1282 1034 728 1338 1599
979 1040 1169 1062 1125 1155 912 1027 1459 1446 1491 1528 1311 1534 2051 1483 1204 1784 1428 1053 1215 1630
1072 1012 829 1046 940 1015 1039 1052 1463 1634 1492 1546 1552 1836 1849 1429 1155 1270 1321 1517 1309 1340
991 972 909 796 980 871 969 1049 1230 1483 1623 1413 1445 2075 2089 1557 1460 1701 1609 1627 1504 1591
824 849 917 955 972 947 985 1001 1026 1283 1529 1580 1077 1412 1700 1957 1623 1610 1563 1866 1834 1551
872 884 915 953 1085 1148 1061 1041 982 900 1084 1408 1543 1110 1434 1914 1851 1884 1787 2023 2152 1826
999 1039 1106 1064 975 1106 1202 1227 1119 1023 777 782 778 782 920 1527 1894 1869 1867 1864 2131 2053
626 1047 1167 1273 1251 1129 1020 1076 1257 1193 1026 868 767 232 323 571 857 1106 1448 1676 1677 1877
372 609 963 1145 1171 1224 1274 1199 1209 1304 1349 1236 1134 562 159 123 627 796 1000 1224 1516 1700
18 796 859 889 1124 1163 1160 1246 1202 1188 1328 1422 1342 744 372 104 277 227 684 1018 1294 1623
7 1 329 719 997 976 1019 1087 1249 1269 1274 1303 1434 1233 529 166 378 345 216 365 925 1097
0 0 0 72 658 786 1088 1065 1174 1278 1325 1341 1326 1312 742 291 399 428 429 354 114 84

GFSNIL_con_mlcape_075.txt.gz
CAPE
1540 1054 715 1073 622 748 872 676 1667 1427 1176 1296 1409 1341 1290 1307 834 879 965 758 1227 1365
1751 1495 619 954 993 950 944 684 1512 1325 1256 1236 1277 1392 1384 1059 818 1306 1081 1102 962 1156
1646 1764 1414 951 1022 797 941 865 957 1363 1406 1288 1232 1403 1563 1215 1368 1079 983 539 1078 1116
1525 1613 1705 1285 1196 1189 988 1193 1239 1814 1631 1649 1472 1374 1626 1789 1437 1394 1301 1268 1070 1712
1468 1511 1467 1589 1404 1426 1429 1118 1074 1629 1635 1730 1690 1671 1675 1571 876 1403 1342 1325 1290 1153
1364 1475 1451 1386 1564 1518 1479 1380 983 1444 1556 1438 1469 1803 1884 1728 1482 1531 1413 1366 1384 1378
1383 1424 1399 1519 1521 1470 1595 1483 1368 1277 1697 1780 1340 1328 1841 1845 1794 1804 1799 1765 1584 1477
1324 1453 1298 1439 1637 1574 1623 1596 1534 1414 1458 1543 1612 1138 1479 1666 1674 1758 1934 1886 1821 1832
1133 1158 1456 1514 1584 1722 1800 1786 1822 1625 1411 1339 1011 704 858 1282 1664 1831 2080 2103 2283 2281
407 997 1024 1364 1501 1630 1730 1902 2023 1863 1714 1672 1543 667 308 773 991 1593 2147 1936 2249 1967
0 90 560 925 1114 1402 1643 1641 1693 1893 2104 2094 2016 1256 553 191 891 1173 1279 1626 2035 2004
0 0 3 138 770 1262 1455 1443 1543 1683 1917 2158 2242 1653 1077 439 468 517 1075 1392 1322 1590
0 0 0 0 0 341 1152 1597 1537 1580 1606 1826 1951 2087 1527 838 961 688 739 884 1124 909
0 0 0 0 0 2 223 980 1433 1457 1556 1531 1699 1997 1414 1143 1302 1068 919 796 780 794

GFSNIL_con_mlcape_078.txt.gz
CAPE
1159 950 938 394 1059 626 179 681 882 1172 1529 1584 1242 1379 1386 1315 1226 1377 372 573 854 1242
1228 941 997 502 866 932 430 730 799 1018 1312 1249 1129 1446 1354 837 1019 474 934 1683 519 791
1819 1699 1272 1399 931 1448 781 294 13 383 1049 1298 1419 1197 1236 1496 746 1132 812 546 1189 378
1805 1972 1645 1484 1369 771 1116 810 17 0 168 1171 1349 1260 1444 1046 988 1045 791 1429 1420 1064
1914 1939 2064 1778 1571 1428 1069 1249 743 274 537 997 1454 1462 1306 1356 1537 1154 1353 876 881 1279
1683 1795 1955 2034 1907 1855 1772 1555 1370 949 1515 1536 1270 1321 1338 1304 1605 1131 1428 1667 1476 1190
1603 1624 1623 1821 1864 1716 1807 1847 1560 1396 1688 1310 1548 1647 1502 1432 1434 1385 1510 1609 1681 1856
97 1625 1903 1410 1450 1711 1793 1870 1899 1723 1462 1766 1487 1612 1516 1811 1680 1136 915 1445 1773 1922
279 432 862 1031 1257 1729 1687 1649 1864 1953 1892 1532 1932 1220 984 1355 1883 1906 1922 1285 1469 2119
0 0 241 957 1474 1599 1526 1596 1717 1941 1992 1902 1774 1265 395 425 1246 1784 1953 1714 1495 1702
0 0 3 122 218 738 1173 1291 1479 1781 2050 2173 2171 1756 1158 614 486 1185 1183 1461 1940 1845
0 0 0 6 2 15 388 1018 1157 1268 1552 1944 2236 2060 1623 1274 883 734 837 1332 1320 1238
0 0 0 0 0 0 0 118 799 1177 1396 1527 1750 2234 1982 1368 1402 1287 975 772 860 1090
0 0 0 0 0 0 0 0 103 330 1099 1231 1493 1712 1726 1532 1828 1627 1460 1287 1106 993

GFSNIL_con_mlcape_081.txt.gz
CAPE
478 280 459 299 147 561 478 762 934 1007 1140 1047 395 1025 892 801 807 954 102 84 301 497
647 641 413 139 54 583 30 433 877 994 1027 1016 956 958 1210 720 526 949 661 330 1259 314
878 825 824 921 737 779 522 544 547 365 579 1002 1070 1057 1104 822 618 634 270 544 470 883
1093 1011 693 895 864 935 575 340 232 249 19 408 997 1200 1025 735 985 823 451 623 1342 980
1321 1379 1007 918 702 1343 689 634 255 0 79 345 794 1182 1067 991 575 767 851 586 774 709
1138 1432 1070 1167 1249 1446 995 588 348 66 18 414 722 1035 1264 892 1285 1110 913 814 942 583
288 558 841 1357 1776 1480 1554 1372 1018 1144 949 1092 1078 1279 1387 1144 924 1103 1210 1069 1432 1385
37 35 76 368 1018 1677 1786 1838 1694 1339 1456 1577 1195 1285 1495 1476 1095 1007 1006 1062 1253 1306
2 27 24 4 196 1116 1392 1687 1670 1547 1515 1280 1710 1267 1139 1434 1338 1363 1183 892 762 1157
0 0 1 54 75 305 1070 1315 1474 1614 1840 1493 1494 1507 1351 996 1368 1444 1465 1214 1144 1258
0 0 0 15 43 35 216 643 1348 1278 1378 1551 1876 1783 1335 971 763 815 1377 1870 1800 1645
0 0 0 0 0 0 0 13 253 910 1097 1258 1347 1390 1683 1537 1037 889 789 817 1091 1527
0 0 0 0 0 0 0 0 0 65 274 969 1084 1242 1280 1267 1115 1118 1077 982 881 740
0 0 0 0 0 0 0 0 0 0 0 12 507 1082 1088 1042 1174 1315 1072 1164 1200 1007

GFSNIL_con_mlcape_084.txt.gz
CAPE
451 201 17 151 448 421 639 601 941 891 941 832 722 427 558 798 715 720 567 162 334 504
475 362 240 414 257 195 599 512 661 845 891 822 777 573 755 579 630 464 697 391 480 808
423 491 181 314 189 56 369 413 624 854 875 764 669 489 824 749 549 410 363 173 331 423
414 604 558 391 688 700 583 488 500 491 489 566 578 978 1063 838 627 529 538 213 624 750
353 413 691 787 957 840 775 501 397 265 207 63 399 773 1092 862 696 625 778 467 270 524
199 303 374 600 738 836 779 701 467 328 14 3 174 562 973 1007 829 576 557 1001 592 710
93 116 187 365 499 577 668 775 598 432 279 111 50 393 726 960 976 872 975 910 831 807
26 20 51 108 2 33 439 896 651 585 505 471 605 822 715 1187 1113 833 746 880 1005 1013
11 4 0 7 9 0 13 575 978 1056 1190 1352 1534 1447 1286 1149 1078 1051 1014 831 821 836
0 0 0 11 40 1 2 180 643 1034 1079 1193 1239 1328 1181 1112 1044 1114 1160 1130 1020 921
0 0 0 0 0 0 9 43 145 446 892 1002 1200 1182 1118 1051 851 933 1075 1180 1261 1209
0 0 0 0 0 0 0 0 0 3 96 422 739 958 815 831 948 948 812 724 853 1061
0 0 0 0 0 0 0 0 0 0 0 0 17 78 377 743 680 806 901 899 835 790
0 0 0 0 0 0 0 0 0 0 0 0 0 0 0 160 501 835 981 770 837 903

GFSNIL_con_mlcape_087.txt.gz
CAPE
293 217 152 310 373 426 516 624 790 810 791 637 451 210 417 527 778 677 666 331 324 685
302 267 133 25 209 347 391 489 529 744 851 744 697 606 450 466 512 483 416 554 446 481
321 336 263 185 299 208 153 345 478 620 774 818 695 596 447 701 496 465 365 333 212 270
300 366 328 262 154 191 68 215 410 403 694 785 690 632 429 664 730 647 280 419 402 617
516 528 370 288 370 373 683 555 332 362 500 505 503 542 661 968 891 705 425 467 444 99
129 224 354 344 551 459 578 540 388 353 305 256 89 217 567 836 954 817 665 418 464 788
46 44 42 0 58 254 434 609 544 400 260 123 15 9 286 599 766 837 820 765 709 599
3 0 0 6 4 0 11 183 560 624 457 308 208 123 133 301 684 798 741 813 792 785
0 5 0 15 0 0 0 15 99 439 702 702 673 602 657 791 778 911 1033 911 844 848
1 0 0 0 0 0 0 0 0 26 276 614 797 964 957 1005 1027 1186 1112 995 961 925
0 0 0 0 0 0 0 0 0 0 0 27 223 278 407 424 546 799 824 905 1006 1057
0 0 0 0 0 0 0 0 0 0 0 0 0 2 5 55 372 504 751 744 720 897
0 0 0 0 0 0 0 0 0 0 0 0 0 0 0 0 39 329 451 646 663 604
0 0 0 0 0 0 0 0 0 0 0 0 0 0 0 0 0 39 274 442 501 601

GFSNIL_con_mlcape_090.txt.gz
CAPE
89 206 193 174 301 234 405 594 497 690 678 479 453 233 253 295 610 646 569 399 338 631
183 164 168 96 110 246 366 448 535 690 581 635 555 403 259 335 491 473 330 289 328 258
260 209 167 103 62 87 213 272 347 458 499 485 516 566 452 464 388 391 429 235 184 179
187 256 271 221 175 136 150 59 55 213 457 598 514 595 477 278 505 540 372 231 229 338
319 330 352 296 244 282 256 240 224 251 262 400 626 664 617 286 401 556 568 323 251 318
136 239 276 281 239 231 382 410 361 299 231 222 277 299 423 496 501 595 431 567 462 343
13 0 0 0 0 52 186 443 433 377 308 279 192 50 32 34 403 556 559 465 536 530
3 0 0 0 0 0 0 25 220 477 443 397 286 208 120 32 145 362 544 639 661 663
0 5 1 0 0 0 0 0 0 85 303 423 543 540 295 231 445 633 658 695 890 816
0 0 0 0 0 0 0 0 0 0 0 24 140 36 121 246 581 839 965 993 1034 992
0 0 0 0 0 0 0 0 0 0 0 0 0 0 0 0 120 436 664 794 878 890
0 0 0 0 0 0 0 0 0 0 0 0 0 0 0 0 0 140 390 505 579 653
0 0 0 0 0 0 0 0 0 0 0 0 0 0 0 0 0 0 74 234 336 381
0 0 0 0 0 0 0 0 0 0 0 0 0 0 0 0 0 0 0 1 34 28

GFSNIL_con_mlcape_093.txt.gz
CAPE
459 501 619 487 697 658 614 739 888 769 783 975 1014 968 984 922 1336 1497 1399 1101 953 1298
303 288 555 561 634 781 835 921 1081 681 532 934 1126 1071 682 727 1064 1283 1258 1202 1164 882
210 244 536 385 313 365 680 789 902 947 945 688 1050 1161 925 995 926 1039 1181 1047 794 906
254 307 390 595 630 506 507 414 488 667 716 981 793 911 657 683 1043 930 1080 923 877 857
278 248 258 530 638 660 558 495 512 478 610 611 502 649 892 916 837 729 684 1038 838 719
114 283 410 609 731 660 627 424 387 573 634 654 687 827 1072 1108 857 588 785 786 1053 1056
77 143 251 302 310 411 633 817 830 832 774 636 616 552 444 543 645 661 595 602 572 722
18 92 148 167 119 110 164 286 654 949 920 846 681 531 479 381 341 460 623 843 752 1082
18 0 0 33 2 6 47 81 140 326 505 561 349 115 239 362 642 812 953 1215 1031 937
1 3 0 0 0 0 0 0 0 0 32 65 22 0 0 30 698 1124 1195 1223 1243 977
0 0 0 0 0 0 0 0 0 0 0 0 0 0 0 0 116 452 822 1083 1216 1301
0 0 0 0 0 0 0 0 0 0 0 0 0 0 0 0 21 117 219 405 644 673
0 0 0 0 0 0 0 0 0 0 0 0 0 0 0 0 0 0 0 39 14 0
0 0 0 0 0 0 0 0 0 0 0 0 0 0 0 0 0 0 0 0 0 0

GFSNIL_con_mlcape_096.txt.gz
CAPE
1056 291 510 624 641 755 915 720 1124 815 932 1281 1352 1559 1734 1160 1020 1247 1314 1648 1835 1256
986 881 488 624 558 779 765 1172 918 679 655 761 989 1326 1465 855 1415 1694 1450 1354 1499 1223
306 309 329 598 545 702 1112 1399 937 907 781 766 831 1202 1479 961 1125 1580 1360 1025 1131 1181
415 421 408 378 499 590 946 1285 1077 827 687 842 699 768 967 1038 1125 1430 1169 1279 1252 1201
450 438 407 410 468 723 622 915 996 1156 960 805 846 1045 1010 993 946 1183 964 746 938 1038
106 195 340 532 513 711 891 698 616 744 764 733 990 927 1011 1364 1248 942 781 822 763 927
41 52 127 421 665 759 925 919 591 702 783 837 1347 1273 1270 1297 1382 1202 898 881 784 682
80 61 46 239 585 742 858 920 970 1187 1335 1382 1364 1067 1348 1138 1076 1075 935 897 1021 932
93 68 89 145 294 388 418 524 823 983 1207 1164 941 45 97 380 1173 1218 1177 1292 1515 1319
5 14 0 0 1 60 141 167 166 297 616 68 0 0 0 0 752 1358 1466 1429 1353 1232
2 3 3 0 0 0 5 90 91 112 89 0 0 0 0 0 273 969 1294 1311 1354 1452
0 0 0 0 0 0 1 12 24 63 11 0 0 0 0 0 237 493 763 523 74 106
0 0 0 0 0 0 0 1 2 3 0 0 0 0 0 0 0 0 22 250 2 0
0 0 0 0 0 0 0 0 0 0 0 0 0 0 0 0 0 0 0 0 0 0

GFSNIL_con_mlcape_099.txt.gz
CAPE
734 551 487 892 1017 611 616 483 1481 1181 1229 1167 1560 1554 1416 1128 1098 1335 1443 1619 1962 1794
1009 908 771 1044 1085 962 913 1155 1116 662 811 936 1052 1308 1418 937 1047 1454 1658 1648 1587 1333
974 799 608 680 800 811 624 925 1094 551 674 759 839 964 1383 1161 890 1178 1367 1134 1149 1353
830 654 736 596 479 588 691 1011 912 1125 995 950 1003 1047 1247 1244 1202 1574 1189 1306 1500 1160
555 701 714 553 566 479 894 961 1067 1077 1157 1205 1094 1121 1379 1279 863 1288 1159 910 852 923
695 740 805 651 696 577 541 1021 886 1036 953 858 994 1338 1403 1406 1369 1062 1079 896 843 820
121 103 112 128 330 615 680 813 858 916 1131 1011 1041 772 1303 1323 1310 1155 925 910 939 847
57 65 48 68 208 375 797 692 819 811 939 1091 1027 474 564 1294 1307 1398 1267 1228 1118 1083
284 383 298 241 88 371 498 668 936 943 1229 1126 85 0 4 233 1217 1105 1253 1186 1259 1318
228 194 254 228 143 161 202 343 538 654 329 42 0 0 0 0 163 989 1233 1368 1193 1417
23 19 8 31 1 0 26 186 238 257 60 0 0 0 0 0 20 633 1213 1144 1308 1457
0 0 1 1 22 19 55 135 196 164 37 0 0 0 0 0 279 630 769 265 92 417
0 0 0 1 0 1 0 35 50 0 0 0 0 0 0 0 0 44 7 520 0 0
0 0 0 0 0 0 0 5 2 3 1 0 0 0 0 0 0 0 0 0 0 0

GFSNIL_con_mlcape_102.txt.gz
CAPE
896 793 762 969 722 73 322 37 705 845 989 1211 1443 1095 1106 1084 902 1649 1505 1470 1558 1562
1004 720 725 860 1284 1144 316 32 226 129 850 726 1059 664 1138 928 901 877 503 898 1699 1104
1135 1085 877 949 948 776 215 7 0 1 519 800 657 740 859 1080 957 1003 317 1119 1151 1179
979 990 819 764 632 677 373 76 108 566 809 828 674 746 941 958 871 796 895 862 865 946
362 536 654 382 331 485 635 889 783 989 873 976 871 842 1016 1010 972 991 1071 1001 1014 941
589 621 733 470 105 275 636 651 1034 896 803 529 787 843 843 823 1054 946 958 1066 991 887
57 90 270 266 333 382 442 435 734 650 700 752 1105 905 924 1156 931 919 1145 941 866 988
61 13 6 48 59 80 53 321 597 669 665 280 145 51 97 250 787 735 1030 1012 964 1136
284 145 91 74 26 29 42 164 367 258 584 172 0 0 0 0 556 659 734 767 945 1077
302 415 355 234 147 72 32 84 73 268 79 0 0 0 0 0 67 347 478 614 718 687
278 132 108 85 37 0 21 59 105 117 0 0 0 0 0 0 9 108 587 1037 1299 1117
16 7 0 10 44 44 2 4 89 88 0 0 0 0 0 0 0 452 604 31 0 3
0 0 0 0 0 0 0 67 2 0 0 0 0 0 0 0 0 0 0 0 0 0
0 0 0 0 0 0 0 0 0 0 0 0 0 0 0 0 0 0 0 0 0 0

GFSNIL_con_mlcape_105.txt.gz
CAPE
649 494 626 686 399 159 186 168 312 559 867 832 1027 1062 1088 616 879 1010 1111 907 1476 1058
765 687 635 812 627 506 242 9 214 281 314 459 884 993 1004 798 602 775 649 489 809 1307
825 788 904 789 302 342 129 68 271 74 57 266 735 744 669 950 883 819 466 11 1229 1052
539 471 758 712 663 330 133 6 0 0 299 577 793 650 758 677 695 472 732 685 879 643
48 359 494 366 359 370 321 265 325 535 862 823 911 771 840 928 928 951 685 672 826 727
183 24 464 333 112 156 410 753 940 845 827 687 673 707 830 876 723 644 754 709 794 810
155 179 271 339 259 63 175 271 372 528 755 595 329 323 364 497 554 603 679 861 855 788
54 22 24 29 22 20 4 12 150 473 277 113 43 9 7 41 228 467 550 725 777 618
97 46 19 10 15 0 2 0 37 39 24 0 0 0 0 0 87 476 703 549 362 463
298 202 276 196 154 67 1 0 4 0 0 0 0 0 0 0 0 126 295 406 483 327
308 177 119 59 27 0 13 17 0 0 0 0 0 0 0 0 17 115 228 136 174 21
120 41 11 0 29 7 0 10 3 0 0 0 0 0 0 0 30 193 1 0 0 0
0 0 0 0 0 0 0 6 0 0 0 0 0 0 0 0 0 0 0 0 0 0
0 0 0 0 0 0 0 0 0 0 0 0 0 0 0 0 0 0 0 0 0 0

GFSNIL_con_mlcape_108.txt.gz
CAPE
459 413 282 82 83 472 410 257 311 415 757 761 769 743 870 782 636 852 691 587 731 1050
387 366 403 525 371 196 153 180 193 408 314 437 573 692 800 795 626 609 569 240 376 834
430 437 498 546 359 413 330 125 37 277 171 219 384 672 761 702 602 633 638 177 375 741
593 707 614 424 206 195 127 65 109 80 0 209 467 705 646 576 595 500 317 465 397 414
645 587 550 516 400 240 152 9 0 0 189 545 631 736 605 512 677 457 474 396 504 463
200 61 358 308 238 262 295 308 232 457 551 571 594 624 570 642 621 670 605 588 494 570
114 52 197 215 105 107 276 195 282 435 678 364 116 100 115 243 242 361 359 497 595 590
177 129 129 94 106 71 49 78 72 173 114 56 26 1 0 4 33 221 33 330 399 244
77 65 62 44 18 0 23 19 59 2 0 0 0 0 0 0 0 95 360 291 255 42
130 136 153 138 101 58 42 47 3 0 0 0 0 0 0 0 1 39 255 277 261 55
327 307 250 147 58 21 59 47 0 0 0 0 0 0 0 0 8 42 68 81 15 0
317 234 128 35 0 0 23 0 0 0 0 0 0 0 0 9 15 0 1 0 0 0
136 83 19 0 0 0 32 2 0 0 0 0 0 0 0 0 0 0 0 0 0 0
0 0 0 0 0 0 22 0 0 0 0 0 0 0 0 0 0 0 0 0 0 0

GFSNIL_con_mlcape_111.txt.gz
CAPE
243 158 177 228 188 161 301 209 249 421 775 560 397 175 517 677 584 727 589 361 723 686
263 269 312 257 73 97 324 256 194 316 466 621 548 611 696 702 463 449 395 287 163 738
214 347 325 337 397 240 189 158 51 183 211 219 280 407 647 706 601 411 392 186 57 511
332 324 344 438 399 253 253 154 29 54 132 54 180 357 563 508 509 503 268 235 386 280
427 445 494 456 331 158 111 21 0 7 30 0 321 554 580 526 606 529 360 198 204 365
194 281 217 296 347 294 205 84 48 48 181 487 545 540 522 528 554 599 671 537 475 459
140 110 18 140 98 137 166 173 273 326 432 463 217 176 158 207 362 368 386 488 506 490
80 217 125 66 90 81 85 47 87 219 153 70 58 14 0 0 26 105 134 225 331 232
114 154 124 98 83 61 11 4 44 39 25 0 0 0 0 0 0 45 170 160 160 78
79 134 117 73 46 9 2 29 17 3 0 0 0 0 0 0 0 22 144 223 224 24
102 129 210 216 169 102 77 35 4 0 0 0 0 0 0 0 0 10 11 16 14 0
212 228 226 156 53 62 44 0 0 0 0 0 0 0 0 0 0 4 0 0 0 0
283 239 150 72 11 9 11 0 0 0 0 0 0 0 0 0 0 0 0 0 0 0
39 25 10 0 0 12 17 0 0 0 0 0 0 0 0 0 0 0 0 0 0 0

GFSNIL_con_mlcape_114.txt.gz
CAPE
125 134 135 146 164 211 198 237 209 374 680 614 399 40 0 537 453 560 610 357 565 531
187 165 108 124 169 115 120 228 168 195 453 566 495 411 485 606 327 320 282 185 212 656
153 199 174 233 233 120 140 187 137 129 210 365 352 365 432 561 579 422 290 107 13 339
211 151 271 250 252 241 197 157 138 61 75 134 113 192 337 450 533 412 306 246 238 342
209 231 298 301 269 148 131 80 73 58 98 67 0 206 380 411 413 432 446 325 143 184
275 350 352 333 222 164 106 52 7 0 0 41 201 383 450 406 379 481 463 484 424 321
264 313 127 33 24 55 74 93 127 135 232 315 368 315 292 209 234 229 340 492 499 477
144 157 104 86 36 30 64 52 38 94 120 83 66 33 31 12 14 48 149 277 418 318
48 42 56 94 108 35 56 79 49 25 19 7 0 0 0 0 0 0 30 154 214 66
72 96 91 107 88 77 58 24 14 0 0 0 0 0 0 0 0 0 30 122 129 6
76 47 65 86 85 61 25 13 6 0 0 0 0 0 0 0 0 0 0 1 0 0
53 43 86 92 66 56 38 1 0 0 0 0 0 0 0 0 0 0 0 0 0 0
90 103 55 24 14 2 11 0 0 0 0 0 0 0 0 0 0 0 0 0 0 0
36 62 18 2 0 3 0 0 0 0 0 0 0 0 0 0 0 0 0 0 0 0

GFSNIL_con_mlcape_117.txt.gz
CAPE
482 446 492 523 450 641 725 739 800 804 778 775 929 802 388 569 1235 1153 1441 1204 1190 1425
485 442 468 521 473 567 638 715 633 573 735 996 1084 804 708 590 875 960 1034 913 682 1205
452 509 571 535 515 613 464 394 696 554 534 865 1088 1155 932 959 1215 1085 979 801 424 541
359 388 584 583 758 738 592 560 409 388 450 528 677 733 788 671 835 931 943 801 611 696
317 476 541 672 729 570 576 509 545 394 260 254 422 412 599 700 721 587 559 500 627 710
238 435 542 726 678 625 559 396 298 192 114 296 327 243 614 802 862 673 686 737 824 731
365 605 645 752 403 221 220 256 352 391 377 326 434 991 913 550 566 552 642 486 782 950
413 545 656 340 179 74 89 171 190 223 253 511 488 373 290 368 391 377 406 598 487 604
363 352 298 175 125 90 100 51 163 132 22 20 22 0 0 0 60 75 77 247 738 124
119 149 29 28 98 123 77 58 94 60 2 0 0 0 0 0 0 0 59 192 843 47
74 7 5 39 82 87 67 56 43 1 0 0 0 0 0 0 0 5 0 0 62 10
46 51 52 12 11 65 78 36 4 0 0 0 0 0 0 1 0 0 0 0 0 0
76 94 58 48 36 18 29 4 1 0 0 0 0 0 0 0 1 0 0 0 0 0
0 29 45 35 18 3 0 2 0 0 0 0 0 0 0 0 0 0 0 0 0 0

GFSNIL_con_mlcape_120.txt.gz
CAPE
585 554 428 405 527 418 529 538 560 781 936 991 1378 1326 1399 866 1002 1022 1369 1679 1763 1023
1012 728 572 848 827 531 704 831 920 1044 966 803 929 920 1027 734 876 1229 1401 1063 1410 1070
704 975 975 986 1058 831 922 1046 1095 1272 1193 1112 1137 1211 1383 889 1083 1164 935 745 820 1144
547 678 898 820 1109 1208 1404 1346 1348 1467 1385 1280 1195 1257 1466 1302 931 1174 1006 994 1022 953
688 775 589 791 926 1216 1315 1285 1472 1435 1320 1095 1185 1179 1304 1193 794 902 896 735 755 727
766 853 611 838 942 1219 1249 1259 1047 1035 1047 1032 991 987 1003 1015 861 919 847 682 768 739
772 700 747 934 1085 1141 1139 1158 1093 1151 1114 951 760 830 1024 925 811 804 757 872 788 749
809 761 933 800 1020 1064 920 760 725 735 734 961 1010 788 1152 1114 939 797 844 925 1012 526
1011 993 961 710 946 856 572 465 476 461 596 622 340 0 0 0 155 557 661 651 708 967
873 642 673 773 818 372 117 290 240 375 387 110 12 0 0 0 0 84 181 500 731 947
254 369 541 152 85 44 81 103 116 141 150 52 0 0 0 0 0 27 213 112 498 790
70 125 108 36 17 41 62 91 12 0 0 0 0 0 0 0 12 10 0 0 0 0
179 132 66 24 23 38 17 0 0 0 0 0 0 0 0 1 93 109 82 1 0 0
12 5 79 52 32 3 0 0 1 1 0 0 0 0 0 0 40 47 63 29 2 0